Regional Weather Roundup
Issued by NWS

Home | Current Version | Previous Version | Text Only | Print | Product List | Glossary Off
Versions: 1 2 3 4 5 6 7 8 9 10 11 12 13 14 15 16 17 18 19 20 21 22 23 24 25 26 27 28 29 30 31 32 33 34 35 36 37 38 39 40 41 42 43 44 45 46 47 48 49 50

000
ASUS43 KLMK 212210
RWRKY
KENTUCKY REGIONAL WEATHER ROUNDUP
NATIONAL WEATHER SERVICE LOUISVILLE KY
600 PM EDT TUE OCT 21 2014

NOTE "FAIR" INDICATES FEW OR NO CLOUDS BELOW 12,000 FEET
WITH NO SIGNIFICANT WEATHER AND/OR OBSTRUCTIONS TO VISIBILITY.

KYZ001>023-026-027-061>063-070>075-212300-
WESTERN AND SOUTH CENTRAL KENTUCKY

CITY           SKY/WX    TMP DP  RH WIND       PRES   REMARKS
PADUCAH        SUNNY     69  45  41 N10       30.06S
HENDERSON      SUNNY    N/A N/A N/A N10G16    30.09S
OWENSBORO      MOSUNNY   62  42  47 N15       30.10R
HOPKINSVILLE   SUNNY     67  45  45 N10       30.05R
BOWLING GREEN  MOSUNNY   64  43  46 N8        30.06R
GLASGOW        PTSUNNY   63  42  46 N12       30.07R
$$

KYZ024-025-028>034-038-045-046-053-212300-
NORTH CENTRAL KENTUCKY

CITY           SKY/WX    TMP DP  RH WIND       PRES   REMARKS
LOUISVILLE/SDF CLOUDY    59  40  49 N10       30.10R
LOUISVILLE/LOU CLOUDY    58  40  51 N6        30.11R
FORT KNOX      CLOUDY    58  42  56 N10       30.09R
$$

KYZ035>037-039>044-047>052-055>060-089>105-212300-
NORTHEAST KENTUCKY

CITY           SKY/WX    TMP DP  RH WIND       PRES   REMARKS
LEXINGTON      CLOUDY    56  41  57 N8        30.09R
COVINGTON      CLOUDY    54  40  59 N8        30.09R
FRANKFORT      CLOUDY    55  40  56 NW6       30.09R
$$

KYZ054-064>069-076>088-106>120-212300-
SOUTHEAST KENTUCKY

CITY           SKY/WX    TMP DP  RH WIND       PRES   REMARKS
JACKSON        CLOUDY    51  39  63 NW8       30.07R
LONDON         CLOUDY    56  39  53 N9        30.08R
SOMERSET       CLOUDY    54  39  58 NE7       30.09R
MIDDLESBORO    CLOUDY    56  42  58 N16G23    30.06R
MONTICELLO     MOCLDY    60  43  53 N8        30.09R
$$




USA.gov is the U.S. government's official web portal to all federal, state and local government web resources and services.